GW7369 Weather Reports


time (UTC)temp
F
wind
direction
speed
knots
gust
knots
rain 1hr
in
rain 24hr
in
rain mn
in
humidity
%
barometer
mb
20260505035559 62 205 4.3 6.1 0.00 0.00 0.00 63 1014.4
20260505035059 62 196 4.3 6.1 0.00 0.00 0.00 63 1014.0
20260505034559 62 187 4.3 6.1 0.00 0.00 0.00 62 1014.4
20260505034059 62 204 5.2 6.1 0.00 0.00 0.00 62 1014.4
20260505033559 63 196 3.5 6.1 0.00 0.00 0.00 62 1014.4
20260505033059 63 216 4.3 6.1 0.00 0.00 0.00 61 1014.4
20260505032558 63 202 4.3 6.1 0.00 0.00 0.00 61 1014.4
20260505032059 63 207 4.3 5.2 0.00 0.00 0.00 61 1014.4
20260505031559 63 194 4.3 6.1 0.00 0.00 0.00 61 1014.4
20260505031059 63 196 4.3 6.1 0.00 0.00 0.00 60 1014.0
20260505030559 63 209 3.5 4.3 0.00 0.00 0.00 60 1014.4
20260505030059 64 192 4.3 5.2 0.00 0.00 0.00 60 1014.0
20260505025558 64 193 3.5 6.1 0.00 0.00 0.00 59 1014.0
20260505025059 64 198 3.5 6.1 0.00 0.00 0.00 58 1014.0
20260505024558 64 196 4.3 6.1 0.00 0.00 0.00 59 1014.0
20260505024059 64 180 4.3 6.1 0.00 0.00 0.00 58 1014.0
20260505023559 64 187 3.5 5.2 0.00 0.00 0.00 57 1014.0
20260505023059 65 196 3.5 5.2 0.00 0.00 0.00 56 1014.0
20260505022559 65 196 3.5 5.2 0.00 0.00 0.00 56 1013.7
20260505022059 65 195 3.5 5.2 0.00 0.00 0.00 55 1014.0
20260505021559 65 222 3.5 7.8 0.00 0.00 0.00 55 1014.0
20260505021059 66 200 3.5 7.8 0.00 0.00 0.00 54 1013.7
20260505020559 66 216 2.6 5.2 0.00 0.00 0.00 54 1014.0
20260505020059 66 204 3.5 7.8 0.00 0.00 0.00 53 1013.7
20260505015559 67 200 3.5 7.8 0.00 0.00 0.00 51 1014.0
20260505015059 67 222 2.6 7.8 0.00 0.00 0.00 51 1014.0
20260505014559 67 235 3.5 6.1 0.00 0.00 0.00 52 1014.0
20260505014059 67 224 2.6 6.1 0.00 0.00 0.00 52 1014.0
20260505013559 67 201 4.3 4.3 0.00 0.00 0.00 52 1013.7
20260505013059 67 228 2.6 7.8 0.00 0.00 0.00 52 1013.7
20260505012559 67 199 1.7 7.8 0.00 0.00 0.00 51 1013.7
20260505012059 68 195 2.6 4.3 0.00 0.00 0.00 51 1013.7
20260505011559 68 192 2.6 5.2 0.00 0.00 0.00 50 1013.3
20260505011059 68 203 1.7 5.2 0.00 0.00 0.00 49 1013.7
20260505010559 69 227 2.6 6.1 0.00 0.00 0.00 48 1014.0
20260505010059 69 245 1.7 6.1 0.00 0.00 0.00 47 1013.3
20260505005559 69 244 5.2 6.1 0.00 0.00 0.00 47 1013.7
20260505005059 69 243 2.6 6.1 0.00 0.00 0.00 46 1013.3
20260505004559 70 231 2.6 6.1 0.00 0.00 0.00 46 1013.3
20260505004059 70 238 4.3 7.0 0.00 0.00 0.00 46 1013.3
20260505003559 70 224 2.6 7.0 0.00 0.00 0.00 45 1013.3
20260505003059 71 237 4.3 7.0 0.00 0.00 0.00 44 1013.3
20260505002559 71 236 4.3 8.7 0.00 0.00 0.00 44 1013.3
20260505002058 71 246 4.3 11.3 0.00 0.00 0.00 43 1013.3
20260505001558 72 232 6.1 11.3 0.00 0.00 0.00 43 1013.3
20260505001059 72 219 5.2 9.6 0.00 0.00 0.00 43 1013.3
20260505000559 72 227 3.5 13.0 0.00 0.00 0.00 42 1013.3
20260505000059 73 247 7.8 13.0 0.00 0.00 0.00 41 1013.3
20260504235559 73 247 4.3 13.0 0.00 0.00 0.00 41 1013.3
20260504235059 73 264 7.0 13.0 0.00 0.00 0.00 41 1013.3
20260504234559 73 262 6.1 15.6 0.00 0.00 0.00 41 1013.3
20260504234059 73 252 8.7 15.6 0.00 0.00 0.00 40 1013.3
20260504233559 73 246 13.0 15.6 0.00 0.00 0.00 40 1013.3
20260504233059 74 249 8.7 15.6 0.00 0.00 0.00 39 1013.3
20260504232559 74 239 11.3 13.0 0.00 0.00 0.00 40 1013.3
20260504232059 74 256 7.0 13.0 0.00 0.00 0.00 39 1013.3
20260504231559 74 249 9.6 11.3 0.00 0.00 0.00 39 1013.3
20260504231059 74 254 3.5 13.9 0.00 0.00 0.00 39 1013.3
20260504230559 74 233 8.7 13.9 0.00 0.00 0.00 38 1013.3
20260504230059 74 265 9.6 13.9 0.00 0.00 0.00 38 1013.3
20260504225559 74 262 8.7 13.9 0.00 0.00 0.00 37 1013.7
20260504225059 74 281 6.1 15.6 0.00 0.00 0.00 37 1013.7
20260504224559 74 265 9.6 15.6 0.00 0.00 0.00 37 1013.7
20260504224059 74 276 11.3 16.5 0.00 0.00 0.00 37 1013.7
20260504223559 75 255 11.3 16.5 0.00 0.00 0.00 36 1013.7
20260504223059 75 228 7.8 15.6 0.00 0.00 0.00 39 1013.7
20260504222559 75 227 8.7 15.6 0.00 0.00 0.00 38 1013.7
20260504221559 75 241 9.6 14.8 0.00 0.00 0.00 39 1013.7
20260504221059 74 241 8.7 17.4 0.00 0.00 0.00 39 1014.0
20260504220559 75 250 14.8 14.8 0.00 0.00 0.00 39 1014.0
20260504220059 75 271 7.8 18.2 0.00 0.00 0.00 37 1014.0
20260504215559 74 243 11.3 18.2 0.00 0.00 0.00 37 1013.7
20260504215059 75 246 12.2 17.4 0.00 0.00 0.00 38 1013.7
20260504214559 74 246 6.1 17.4 0.00 0.00 0.00 38 1014.0
20260504214058 74 252 7.8 18.2 0.00 0.00 0.00 39 1013.7
20260504213559 75 247 13.0 18.2 0.00 0.00 0.00 39 1014.0
20260504213058 75 215 9.6 17.4 0.00 0.00 0.00 39 1013.7
20260504212559 75 256 10.4 17.4 0.00 0.00 0.00 39 1014.0
20260504212059 75 272 9.6 19.1 0.00 0.00 0.00 39 1014.0
20260504211600 75 251 13.0 19.1 0.00 0.00 0.00 38 1014.0
20260504211059 75 235 15.6 19.1 0.00 0.00 0.00 39 1014.0
20260504210559 75 248 13.0 19.1 0.00 0.00 0.00 38 1014.4
20260504210059 75 244 10.4 19.1 0.00 0.00 0.00 37 1014.4
20260504205559 75 250 8.7 19.1 0.00 0.00 0.00 37 1014.4
20260504205059 76 249 10.4 17.4 0.00 0.00 0.00 36 1014.4
20260504204558 75 262 7.0 18.2 0.00 0.00 0.00 36 1014.4
20260504204058 75 203 12.2 18.2 0.00 0.00 0.00 37 1014.4
20260504203559 75 254 9.6 17.4 0.00 0.00 0.00 38 1014.4
20260504203059 75 264 9.6 17.4 0.00 0.00 0.00 38 1014.4
20260504202559 76 201 7.8 17.4 0.00 0.00 0.00 37 1014.4
20260504202058 75 267 7.0 17.4 0.00 0.00 0.00 36 1014.7
20260504201559 75 266 7.0 17.4 0.00 0.00 0.00 36 1014.7
20260504201059 75 243 13.0 17.4 0.00 0.00 0.00 37 1014.7
20260504200559 75 256 8.7 18.2 0.00 0.00 0.00 37 1014.7
20260504200059 75 253 10.4 18.2 0.00 0.00 0.00 36 1014.7
20260504195559 74 204 7.0 17.4 0.00 0.00 0.00 35 1015.1
20260504195059 75 235 15.6 16.5 0.00 0.00 0.00 37 1015.1
20260504194559 75 262 6.1 16.5 0.00 0.00 0.00 39 1014.7
20260504194059 74 291 5.2 13.9 0.00 0.00 0.00 40 1015.4
20260504193559 74 232 7.0 13.9 0.00 0.00 0.00 40 1014.7
20260504193059 74 236 7.8 15.6 0.00 0.00 0.00 39 1015.4
20260504192559 74 279 12.2 15.6 0.00 0.00 0.00 39 1015.4
20260504192059 74 234 10.4 14.8 0.00 0.00 0.00 36 1015.4
20260504191559 75 214 10.4 13.0 0.00 0.00 0.00 37 1015.4
20260504191059 73 256 7.0 15.6 0.00 0.00 0.00 43 1015.4
20260504190559 73 256 7.8 15.6 0.00 0.00 0.00 43 1015.4
20260504190059 74 211 5.2 14.8 0.00 0.00 0.00 43 1015.4
20260504185559 74 242 6.1 16.5 0.00 0.00 0.00 43 1015.4
20260504185059 73 263 8.7 16.5 0.00 0.00 0.00 44 1015.4
20260504184559 73 258 8.7 15.6 0.00 0.00 0.00 43 1015.8
20260504184059 73 236 3.5 13.9 0.00 0.00 0.00 44 1015.8
20260504183559 73 255 9.6 13.9 0.00 0.00 0.00 42 1015.4
20260504183059 73 235 7.8 13.9 0.00 0.00 0.00 43 1015.8
20260504182559 73 257 12.2 13.9 0.00 0.00 0.00 42 1015.8
20260504182058 72 278 7.0 16.5 0.00 0.00 0.00 43 1015.8
20260504181559 73 248 10.4 16.5 0.00 0.00 0.00 44 1016.1
20260504181059 73 308 7.0 13.9 0.00 0.00 0.00 43 1015.8
20260504180558 73 290 6.1 13.9 0.00 0.00 0.00 43 1016.1
20260504180059 73 284 7.0 16.5 0.00 0.00 0.00 42 1016.1
20260504175559 73 242 8.7 16.5 0.00 0.00 0.00 43 1016.1
20260504175059 73 237 4.3 13.0 0.00 0.00 0.00 44 1016.1
20260504174559 73 244 7.0 13.9 0.00 0.00 0.00 45 1016.5
20260504174059 72 287 7.0 13.9 0.00 0.00 0.00 45 1016.1
20260504173559 72 282 6.1 13.0 0.00 0.00 0.00 44 1016.5
20260504173059 72 231 9.6 11.3 0.00 0.00 0.00 44 1016.5
20260504172600 73 283 7.0 13.0 0.00 0.00 0.00 45 1016.8
20260504172059 72 320 8.7 13.9 0.00 0.00 0.00 45 1016.5
20260504171559 71 275 7.0 15.6 0.00 0.00 0.00 46 1016.5
20260504171059 72 272 11.3 15.6 0.00 0.00 0.00 46 1016.5
20260504170558 71 273 6.1 15.6 0.00 0.00 0.00 47 1016.8
20260504151059 67 272 12.2 16.5 0.00 0.00 0.00 51 1017.9
20260504150558 66 272 9.6 19.1 0.00 0.00 0.00 52 1017.9
20260504140842 62 268 4.3 13.0 0.00 0.00 0.00 59 1018.3
20260504140341 61 249 3.5 13.0 0.00 0.00 0.00 61 1017.9
20260504130800 55 224 6.1 9.6 0.00 0.00 0.00 69 1018.3
20260504130300 55 235 7.0 10.4 0.00 0.00 0.00 68 1017.9
20260504120301 52 249 3.5 6.1 0.00 0.00 0.00 70 1017.9
20260504110300 51 215 1.7 7.0 0.00 0.00 0.00 70 1017.6
20260504100300 51 205 3.5 5.2 0.00 0.00 0.00 70 1017.2
20260504081800 52 245 1.7 3.5 0.00 0.00 0.00 69 1017.2
20260504081300 52 229 0.9 6.1 0.00 0.00 0.00 68 1017.2
20260504080800 52 208 0.9 6.1 0.00 0.00 0.00 67 1017.2
20260504080300 53 170 1.7 4.3 0.00 0.00 0.00 67 1017.2
20260504070300 55 230 5.2 8.7 0.00 0.00 0.00 61 1017.9
20260504050300 54 207 2.6 6.1 0.00 0.00 0.00 66 1018.6
20260504045800 54 206 4.3 5.2 0.00 0.00 0.00 66 1018.6
20260504045300 54 203 4.3 5.2 0.00 0.00 0.00 66 1019.0
20260504044800 54 211 1.7 5.2 0.00 0.00 0.00 66 1019.0
20260504044300 54 193 3.5 4.3 0.00 0.00 0.00 66 1019.0
20260504043800 54 201 0.9 4.3 0.00 0.00 0.00 68 1019.0
20260504043300 54 209 1.7 4.3 0.00 0.00 0.00 67 1019.0
20260504042800 54 200 1.7 2.6 0.00 0.00 0.00 67 1019.0
20260504042300 55 206 1.7 2.6 0.00 0.00 0.00 66 1019.0
20260504041800 55 223 0.9 2.6 0.00 0.00 0.00 66 1019.0
20260504041300 55 195 1.7 2.6 0.00 0.00 0.00 65 1019.0
20260504040801 55 198 1.7 1.7 0.00 0.00 0.00 63 1019.0
20260504040300 56 217 0.9 1.7 0.00 0.00 0.00 63 1019.0
20260504035800 56 208 1.7 1.7 0.00 0.00 0.00 62 1019.3